Location: Czekanka
(50.4925°N, 19.2643°E)
Time: 12:11:09
(UTC+00:00)

Cosmos 1606 - Pass Details

Date: 15 June 2024
Orbit: 456 x 469 km, 82.5° (Epoch: 15 July)

Event Time Altitude Azimuth Distance (km) Brightness Sun altitude
Rises 00:56:08 0° 340° (NNW) 2,527 6.8 -10.6°
Reaches altitude 10° 00:58:25 10° 328° (NNW) 1,647 5.6 -10.4°
Maximum altitude 01:01:30 27° 269° (W) 941 3.7 -10.1°
Enters shadow 01:03:50 14° 218° (SW) 1,388 4.2 -9.9°
